When you browse on this site, cookies collect data to enhance your experience and personalize the content and advertising you see.
Visit our Privacy Policy to learn more. By continuing to use the site, you agree to this use of cookies and data.
  • In Lithuania
  • List of Countries
  • For 7 days
  • Water Temperature
  • Satellite Maps
  • Weather Map
  • Weather Widgets
  • user-avatar
    Login

    Hourly Weather Syargozero

    Today, 22 July, Monday

    Time Temperature Precipitation Wind Pressure Humidity
    00:00 +11°C° 0 mm 1 mps 741 mmHg 72%
    01:00 +11°C° 0 mm 1 mps 741 mmHg 72%
    02:00 +11°C° 0 mm 1 mps 741 mmHg 73%
    03:00 +12°C° 0 mm 1 mps 742 mmHg 72%
    04:00 +12°C° 0 mm 1 mps 742 mmHg 72%
    05:00 +13°C° 0 mm 1 mps 742 mmHg 71%
    06:00 +15°C° 0 mm 1 mps 742 mmHg 65%
    07:00 +17°C° 0 mm 2 mps 742 mmHg 58%
    08:00 +19°C° 0 mm 2 mps 742 mmHg 52%
    09:00 +20°C° 0 mm 2 mps 741 mmHg 49%
    10:00 +21°C° 0 mm 2 mps 741 mmHg 45%
    11:00 +21°C° 0 mm 3 mps 741 mmHg 42%
    12:00 +22°C° 0 mm 3 mps 741 mmHg 41%
    13:00 +22°C° 0 mm 3 mps 741 mmHg 40%
    14:00 +22°C° 0 mm 3 mps 741 mmHg 39%
    15:00 +23°C° 0 mm 2 mps 741 mmHg 42%
    16:00 +23°C° 0 mm 2 mps 740 mmHg 44%
    17:00 +21°C° 0 mm 2 mps 740 mmHg 46%
    18:00 +19°C° 0 mm 2 mps 740 mmHg 54%
    19:00 +18°C° 0 mm 1 mps 740 mmHg 63%
    20:00 +15°C° 0 mm 1 mps 740 mmHg 71%
    21:00 +14°C° 0 mm 1 mps 740 mmHg 71%
    22:00 +13°C° 0 mm 1 mps 740 mmHg 71%
    23:00 +12°C° 0 mm 1 mps 740 mmHg 72%

    Tomorrow, 23 July, Tuesday

    Time Temperature Precipitation Wind Pressure Humidity
    00:00 +12°C° 0 mm 1 mps 740 mmHg 74%
    01:00 +11°C° 0 mm 1 mps 740 mmHg 76%
    02:00 +11°C° 0 mm 1 mps 739 mmHg 78%
    03:00 +12°C° 0 mm 1 mps 740 mmHg 77%
    04:00 +13°C° 0 mm 1 mps 740 mmHg 76%
    05:00 +13°C° 0 mm 1 mps 740 mmHg 75%
    06:00 +15°C° 0 mm 1 mps 740 mmHg 69%
    07:00 +18°C° 0 mm 1 mps 740 mmHg 63%
    08:00 +19°C° 0 mm 2 mps 739 mmHg 58%
    09:00 +20°C° 0 mm 2 mps 740 mmHg 53%
    10:00 +23°C° 0 mm 2 mps 740 mmHg 48%
    11:00 +24°C° 0 mm 2 mps 740 mmHg 42%
    12:00 +24°C° 0 mm 2 mps 739 mmHg 41%
    13:00 +24°C° 0 mm 2 mps 739 mmHg 40%
    14:00 +24°C° 0 mm 2 mps 739 mmHg 39%
    15:00 +24°C° 0 mm 2 mps 739 mmHg 42%
    16:00 +23°C° 0 mm 2 mps 739 mmHg 44%
    17:00 +21°C° 0 mm 2 mps 739 mmHg 46%
    18:00 +19°C° 0 mm 2 mps 739 mmHg 54%
    19:00 +18°C° 0 mm 1 mps 739 mmHg 62%
    20:00 +15°C° 0 mm 1 mps 739 mmHg 70%
    21:00 +14°C° 0 mm 1 mps 739 mmHg 69%
    22:00 +13°C° 0 mm 1 mps 739 mmHg 68%
    23:00 +12°C° 0 mm 1 mps 740 mmHg 67%

    Day after tomorrow, 24 July, Wednesday

    Time Temperature Precipitation Wind Pressure Humidity
    00:00 +12°C° 0 mm 1 mps 740 mmHg 67%
    01:00 +10°C° 0 mm 0 mps 740 mmHg 68%
    02:00 +10°C° 0 mm 0 mps 740 mmHg 68%
    03:00 +11°C° 0 mm 0 mps 740 mmHg 68%
    04:00 +12°C° 0 mm 0 mps 740 mmHg 67%
    05:00 +13°C° 0 mm 0 mps 740 mmHg 66%
    06:00 +15°C° 0 mm 0 mps 740 mmHg 60%
    07:00 +17°C° 0 mm 0 mps 741 mmHg 53%
    08:00 +21°C° 0 mm 1 mps 741 mmHg 46%
    09:00 +22°C° 0 mm 1 mps 741 mmHg 42%
    10:00 +24°C° 0 mm 1 mps 741 mmHg 38%
    11:00 +24°C° 0 mm 0 mps 741 mmHg 34%
    12:00 +26°C° 0 mm 1 mps 741 mmHg 32%
    13:00 +27°C° 0 mm 1 mps 741 mmHg 31%
    14:00 +27°C° 0 mm 1 mps 741 mmHg 29%
    15:00 +26°C° 0 mm 1 mps 741 mmHg 31%
    16:00 +26°C° 0 mm 1 mps 741 mmHg 33%
    17:00 +25°C° 0 mm 1 mps 741 mmHg 35%
    18:00 +23°C° 0 mm 1 mps 741 mmHg 43%
    19:00 +20°C° 0 mm 1 mps 741 mmHg 52%
    20:00 +18°C° 0 mm 1 mps 741 mmHg 61%
    21:00 +16°C° 0 mm 1 mps 741 mmHg 63%
    22:00 +16°C° 0 mm 1 mps 741 mmHg 65%
    23:00 +15°C° 0 mm 1 mps 741 mmHg 68%

    25 July, Thursday

    Time Temperature Precipitation Wind Pressure Humidity
    00:00 +15°C° 0 mm 1 mps 741 mmHg 68%
    01:00 +14°C° 0 mm 1 mps 741 mmHg 68%
    02:00 +14°C° 0 mm 1 mps 741 mmHg 69%
    03:00 +15°C° 0 mm 1 mps 742 mmHg 70%
    04:00 +15°C° 0 mm 2 mps 742 mmHg 71%
    05:00 +15°C° 0 mm 2 mps 742 mmHg 72%
    06:00 +17°C° 0 mm 2 mps 742 mmHg 71%
    07:00 +18°C° 0 mm 2 mps 742 mmHg 69%
    08:00 +20°C° 0 mm 2 mps 742 mmHg 67%
    09:00 +21°C° 0 mm 2 mps 743 mmHg 61%
    10:00 +22°C° 0 mm 3 mps 743 mmHg 54%
    11:00 +25°C° 0 mm 3 mps 743 mmHg 47%
    12:00 +25°C° 0 mm 3 mps 743 mmHg 45%
    13:00 +25°C° 0 mm 3 mps 743 mmHg 43%
    14:00 +25°C° 0 mm 3 mps 743 mmHg 40%
    15:00 +25°C° 0 mm 3 mps 743 mmHg 43%
    16:00 +24°C° 0 mm 3 mps 743 mmHg 45%
    17:00 +22°C° 0 mm 3 mps 743 mmHg 47%
    18:00 +20°C° 0 mm 2 mps 743 mmHg 55%
    19:00 +19°C° 0 mm 1 mps 743 mmHg 62%
    20:00 +16°C° 0 mm 1 mps 744 mmHg 70%
    21:00 +15°C° 0 mm 1 mps 744 mmHg 70%
    22:00 +14°C° 0 mm 0 mps 744 mmHg 70%
    23:00 +13°C° 0 mm 0 mps 744 mmHg 71%

    26 July, Friday

    Time Temperature Precipitation Wind Pressure Humidity
    00:00 +14°C° 0 mm 1 mps 745 mmHg 71%
    01:00 +14°C° 0 mm 1 mps 745 mmHg 71%
    02:00 +14°C° 0 mm 1 mps 745 mmHg 71%
    03:00 +14°C° 0 mm 1 mps 745 mmHg 72%
    04:00 +15°C° 0 mm 1 mps 745 mmHg 72%
    05:00 +15°C° 0 mm 1 mps 745 mmHg 73%
    06:00 +19°C° 0 mm 1 mps 745 mmHg 68%
    07:00 +21°C° 0 mm 1 mps 744 mmHg 62%
    08:00 +23°C° 0 mm 1 mps 744 mmHg 57%
    09:00 +24°C° 0 mm 2 mps 744 mmHg 53%
    10:00 +26°C° 0 mm 2 mps 744 mmHg 48%
    11:00 +27°C° 0 mm 2 mps 744 mmHg 43%
    12:00 +27°C° 0 mm 2 mps 743 mmHg 45%
    13:00 +27°C° 0 mm 2 mps 743 mmHg 46%
    14:00 +27°C° 0 mm 2 mps 742 mmHg 48%
    15:00 +27°C° 0 mm 2 mps 742 mmHg 52%
    16:00 +26°C° 0 mm 2 mps 741 mmHg 56%
    17:00 +26°C° 0 mm 2 mps 741 mmHg 61%
    18:00 +24°C° 0.1 mm 2 mps 741 mmHg 67%
    19:00 +23°C° 0.1 mm 2 mps 740 mmHg 73%
    20:00 +20°C° 0.1 mm 2 mps 740 mmHg 79%
    21:00 +19°C° 0.6 mm 2 mps 740 mmHg 84%
    22:00 +18°C° 0.6 mm 2 mps 739 mmHg 89%
    23:00 +18°C° 0.6 mm 1 mps 739 mmHg 95%

    27 July, Saturday

    Time Temperature Precipitation Wind Pressure Humidity
    00:00 +18°C° 0.4 mm 1 mps 739 mmHg 96%
    01:00 +18°C° 0.4 mm 1 mps 738 mmHg 97%
    02:00 +16°C° 0.4 mm 1 mps 738 mmHg 98%
    03:00 +16°C° 0 mm 2 mps 738 mmHg 98%
    04:00 +17°C° 0 mm 2 mps 738 mmHg 98%
    05:00 +17°C° 0 mm 3 mps 738 mmHg 98%
    06:00 +17°C° 0 mm 3 mps 739 mmHg 93%
    07:00 +18°C° 0 mm 4 mps 739 mmHg 89%
    08:00 +18°C° 0 mm 4 mps 739 mmHg 85%
    09:00 +18°C° 0 mm 4 mps 739 mmHg 82%
    10:00 +18°C° 0 mm 4 mps 740 mmHg 79%
    11:00 +17°C° 0 mm 5 mps 740 mmHg 75%
    12:00 +17°C° 0 mm 5 mps 740 mmHg 73%
    13:00 +18°C° 0 mm 4 mps 740 mmHg 71%
    14:00 +18°C° 0 mm 4 mps 740 mmHg 69%
    15:00 +18°C° 0 mm 4 mps 740 mmHg 67%
    16:00 +18°C° 0 mm 4 mps 740 mmHg 64%
    17:00 +18°C° 0 mm 4 mps 740 mmHg 61%
    18:00 +15°C° 0 mm 4 mps 740 mmHg 63%
    19:00 +14°C° 0 mm 3 mps 740 mmHg 65%
    20:00 +13°C° 0 mm 3 mps 741 mmHg 67%
    21:00 +13°C° 0 mm 2 mps 741 mmHg 70%
    22:00 +10°C° 0 mm 2 mps 741 mmHg 73%
    23:00 +10°C° 0 mm 1 mps 741 mmHg 77%
    Show more